Regional Weather Roundup
Issued by NWS

Home | Current Version | Previous Version | Text Only | Print | Product List | Glossary Off
Versions: 1 2 3 4 5 6 7 8 9 10 11 12 13 14 15 16 17 18 19 20 21 22 23 24 25 26 27 28 29 30 31 32 33 34 35 36 37 38 39 40 41 42 43 44 45 46 47 48 49 50

000
ASUS44 KMEG 300010
RWRTN
TENNESSEE HOURLY STATE WEATHER ROUNDUP
NATIONAL WEATHER SERVICE MEMPHIS TN
700 PM CDT MON JUN 29 2015

TNZ002-004-019-021-049-052-054-088>092-300100-
WEST TENNESSEE

CITY           SKY/WX    TMP DP  RH WIND       PRES   REMARKS
MEMPHIS INTL   PTSUNNY   87  69  54 SW9G17    29.86F HX  91
NWS MEMPHIS      N/A     87 N/A N/A MISG        N/A
JACKSON        SUNNY     85  71  63 SW8       29.86S HX  90
DYERSBURG        N/A    N/A N/A N/A MISG        N/A
PARIS          MOSUNNY   79  68  69 S6        29.86S
LEXINGTON      SUNNY     82  72  69 S7        29.86S
$$

TNZ008-025-027-028-033-062-065-066-300100-
NORTH MIDDLE TENNESSEE

CITY           SKY/WX    TMP DP  RH WIND       PRES   REMARKS
NASHVILLE      PTSUNNY   84  70  62 SW7G18    29.86S
CLARKSVILLE    CLOUDY    77  71  82 SW5       29.86R
SMYRNA         MOSUNNY   85  70  60 SW8       29.87S
COOKEVILLE     MOSUNNY   81  70  69 SW9       29.89F
CROSSVILLE     MOSUNNY   76  64  66 VRB6      29.96R
$$

TNZ061-075-076-078-094-096-097-300100-
SOUTH MIDDLE TENNESSEE

CITY           SKY/WX    TMP DP  RH WIND       PRES   REMARKS
FAYETTEVILLE   PTSUNNY   81  63  54 SW8       29.92S
TULLAHOMA      PTSUNNY   79  64  61 SW6       29.93S
WINCHESTER     PTSUNNY   81  66  61 SW5       29.93S
MCMINNVILLE    MOSUNNY   79  70  73 SW5       29.92R
COLUMBIA       SUNNY     73  73 100 SW8       29.90R
SHELBYVILLE    PTSUNNY   81  70  69 SW7       29.91R
$$

TNZ017-018-042-046-047-300100-
NORTHEAST TENNESSEE

CITY           SKY/WX    TMP DP  RH WIND       PRES   REMARKS
TRI CITIES     PTCLDY    79  60  52 SW6       29.92F
ELIZABETHTON   PTCLDY    75  63  64 CALM      29.94F
$$

TNZ012-013-036-069-073-074-300100-
CENTRAL EAST TENNESSEE

CITY           SKY/WX    TMP DP  RH WIND       PRES   REMARKS
KNOXVILLE      MOCLDY    80  63  55 S14       29.91R
OAK RIDGE      CLOUDY    82  64  54 VRB5      29.92R
GATLINBURG     CLEAR     81  61  50 SW9       29.91R
MORRISTOWN     CLEAR     79  64  61 SW13      29.93R
$$

TNZ083-085-099-300100-
SOUTHEAST TENNESSEE

CITY           SKY/WX    TMP DP  RH WIND       PRES   REMARKS
CHATTANOOGA    PTSUNNY   84  63  49 SW10      29.92R
$$

SKY/WX REPORTED AS FAIR MEANS FEW OR NO CLOUDS BELOW
12 THOUSAND FEET.



USA.gov is the U.S. government's official web portal to all federal, state and local government web resources and services.